This is the latest recevied weather packets stored in our database for station/object WL7CLI. If no packets are shown the sender has not sent any weather packets the latest 10 day(s).
| Time | Temp. | Humidity | Pressure | Rain* | Wind** | Luminosity | Snow |
|---|---|---|---|---|---|---|---|
| 1777500973 | 15° C | 41% | 1018 hPa | 0 mm | - | - | - |
| 1777500298 | 15° C | 40% | 1018.1 hPa | 0 mm | - | - | - |
| 1777499904 | 15° C | 43% | 1017.8 hPa | 0 mm | - | - | - |
| 1777499775 | 14.44° C | 43% | 1018.1 hPa | 0 mm | - | - | - |
| 1777499097 | 15° C | 42% | 1018.1 hPa | 0 mm | - | - | - |
| 1777498104 | 15° C | 44% | 1017.9 hPa | 0 mm | - | - | - |
| 1777497897 | 14.44° C | 45% | 1018.2 hPa | 0 mm | - | - | - |
| 1777497373 | 14.44° C | 43% | 1018.3 hPa | 0 mm | - | - | - |
| 1777496697 | 15.56° C | 40% | 1018.3 hPa | 0 mm | - | - | - |
| 1777496304 | 15.56° C | 47% | 1018.2 hPa | 0 mm | - | - | - |
| 1777496172 | 15.56° C | 43% | 1018.5 hPa | 0 mm | - | - | - |
| 1777495497 | 15.56° C | 44% | 1018.6 hPa | 0 mm | - | - | - |
| 1777494972 | 15.56° C | 45% | 1018.6 hPa | 0 mm | - | - | - |
| 1777494504 | 15° C | 48% | 1018.5 hPa | 0 mm | - | - | - |
| 1777494298 | 14.44° C | 50% | 1018.9 hPa | 0 mm | - | - | - |
| 1777493772 | 13.89° C | 48% | 1019.1 hPa | 0 mm | - | - | - |
| 1777493097 | 14.44° C | 47% | 1019.1 hPa | 0 mm | - | - | - |
| 1777492704 | 13.89° C | 50% | 1018.9 hPa | 0 mm | - | - | - |
| 1777492572 | 13.89° C | 49% | 1019.3 hPa | 0 mm | - | - | - |
| 1777491897 | 14.44° C | 50% | 1019.4 hPa | 0 mm | - | - | - |
| 1777491372 | 14.44° C | 53% | 1019.5 hPa | 0 mm | - | - | - |
| 1777490904 | 14.44° C | 54% | 1019.3 hPa | 0 mm | - | - | - |
| 1777490697 | 14.44° C | 51% | 1019.5 hPa | 0 mm | - | - | - |
| 1777490172 | 14.44° C | 47% | 1019.5 hPa | 0 mm | - | - | - |
| 1777489496 | 14.44° C | 52% | 1019.6 hPa | 0 mm | - | - | - |
* Rain latest hour (hover to see other rain measurements)
** Current wind speed in m/s (hover to see current wind gust speed)